GW1468 Weather Reports


time (UTC)temp
F
wind
direction
speed
knots
gust
knots
rain 1hr
in
rain 24hr
in
rain mn
in
humidity
%
barometer
mb
20260504141236 52 302 0.0 0.9 0.00 0.00 0.03 89
20260504140653 51 179 0.9 2.6 0.00 0.00 0.03 88
20260504130633 46 341 0.0 0.9 0.00 0.00 0.00 88
20260504110627 41 333 0.0 0.0 0.00 0.00 0.00 94
20260504081814 41 350 0.0 0.0 0.00 0.00 0.00 90
20260504081216 41 350 0.0 0.0 0.00 0.00 0.00 90
20260504080626 41 350 0.0 0.0 0.00 0.00 0.00 90
20260504045417 38 268 0.0 0.0 0.00 0.00 0.00 93
20260504044831 39 268 0.0 0.0 0.00 0.00 0.00 92
20260504044221 39 268 0.0 0.0 0.00 0.00 0.00 91
20260504043642 39 268 0.0 0.0 0.00 0.00 0.00 91
20260504043048 39 268 0.0 0.0 0.00 0.00 0.00 90
20260504042431 39 268 0.0 0.0 0.00 0.00 0.00 90
20260504041228 40 268 0.0 0.0 0.00 0.00 0.00 89
20260504040644 40 268 0.0 0.0 0.00 0.00 0.00 89
20260504040030 40 268 0.0 0.9 0.00 0.00 0.00 89
20260504035428 40 268 0.0 0.0 0.00 0.00 0.00 89
20260504034214 40 268 0.0 0.0 0.00 0.00 0.00 88
20260504033612 40 268 0.0 0.0 0.00 0.00 0.00 87
20260504033036 41 268 0.0 0.0 0.00 0.00 0.00 87
20260504031244 42 268 0.0 0.0 0.00 0.00 0.00 84
20260504030018 42 268 0.0 0.0 0.00 0.00 0.00 84
20260504025413 42 268 0.0 0.0 0.00 0.00 0.00 84
20260504024824 42 268 0.0 0.0 0.00 0.00 0.00 83
20260504024220 43 268 0.0 0.0 0.00 0.00 0.00 81
20260504023633 43 268 0.0 0.0 0.00 0.00 0.00 80
20260504023027 44 268 0.0 0.0 0.00 0.00 0.00 80
20260504022437 43 268 0.0 0.9 0.00 0.00 0.00 79
20260504021834 43 268 0.0 0.0 0.00 0.00 0.00 80
20260504020620 44 268 0.0 0.0 0.00 0.00 0.00 77
20260504020020 44 268 0.0 0.0 0.00 0.00 0.00 77
20260504015443 44 268 0.9 0.9 0.00 0.00 0.00 77
20260504014826 45 268 0.0 0.0 0.00 0.00 0.00 76
20260504014244 46 268 0.0 0.0 0.00 0.00 0.00 75
20260504013650 46 268 0.0 0.9 0.00 0.00 0.00 73
20260504012412 46 268 0.0 0.0 0.00 0.00 0.00 75
20260504011837 46 268 0.0 0.9 0.00 0.00 0.00 73
20260504011214 47 268 0.0 0.0 0.00 0.00 0.00 72
20260504010635 47 268 0.0 0.9 0.00 0.00 0.00 70
20260504010049 47 268 0.0 0.0 0.00 0.00 0.00 72
20260504005438 48 268 0.0 0.0 0.00 0.00 0.00 68
20260504004247 48 268 0.0 0.9 0.00 0.00 0.00 68
20260504003614 49 268 0.0 0.0 0.00 0.00 0.00 66
20260504003040 50 268 0.0 0.0 0.00 0.00 0.00 65
20260504002436 50 268 0.0 0.9 0.00 0.00 0.00 63
20260504001818 50 268 0.0 0.0 0.00 0.00 0.00 63
20260504001219 51 268 0.0 0.9 0.00 0.00 0.00 63
20260504000654 52 268 0.0 0.9 0.00 0.00 0.00 57
20260504000042 52 268 0.0 0.0 0.00 0.00 0.00 56
20260503235412 53 268 0.9 0.9 0.00 0.00 0.00 55
20260503234815 54 268 0.0 0.9 0.00 0.00 0.00 55
20260503234236 55 268 0.0 0.0 0.00 0.00 0.00 53
20260503233627 56 268 0.0 0.9 0.00 0.00 0.00 50
20260503233035 57 269 0.0 0.0 0.00 0.00 0.00 48
20260503232447 59 224 0.9 0.9 0.00 0.00 0.00 42
20260503231818 60 224 0.0 0.9 0.00 0.00 0.00 41
20260503231252 60 238 0.9 0.9 0.00 0.00 0.00 43
20260503230636 62 271 0.0 0.9 0.00 0.00 0.00 38
20260503230041 62 247 0.0 1.7 0.00 0.00 0.00 36
20260503224223 64 228 0.9 2.6 0.00 0.00 0.00 34
20260503223614 64 178 0.9 1.7 0.00 0.00 0.00 29
20260503223014 63 176 0.9 2.6 0.00 0.00 0.00 29
20260503222422 64 232 0.9 2.6 0.00 0.00 0.00 29
20260503221820 64 170 2.6 3.5 0.00 0.00 0.00 28
20260503221224 64 139 0.9 6.1 0.00 0.00 0.00 27
20260503220654 63 279 0.9 2.6 0.00 0.00 0.00 29
20260503220044 63 203 3.5 7.8 0.00 0.00 0.00 28
20260503215439 64 240 3.5 8.7 0.00 0.00 0.00 28
20260503214810 64 125 0.0 1.7 0.00 0.00 0.00 31
20260503214224 65 160 1.7 2.6 0.00 0.00 0.00 27
20260503213647 63 286 0.9 2.6 0.00 0.00 0.00 27
20260503212440 64 176 2.6 7.0 0.00 0.00 0.00 26
20260503211827 64 67 0.9 3.5 0.00 0.00 0.00 31
20260503211227 63 158 0.9 7.0 0.00 0.00 0.00 30
20260503210647 64 244 0.9 3.5 0.00 0.00 0.00 29
20260503210017 64 208 1.7 5.2 0.00 0.00 0.00 30
20260503205430 63 10 0.9 1.7 0.00 0.00 0.00 30
20260503204242 63 316 0.9 1.7 0.00 0.00 0.00 30
20260503203038 63 192 1.7 2.6 0.00 0.00 0.00 30
20260503202422 63 241 1.7 3.5 0.00 0.00 0.00 34
20260503201816 63 196 4.3 7.0 0.00 0.00 0.00 31
20260503201234 62 190 2.6 7.8 0.00 0.00 0.00 32
20260503200625 61 199 1.7 2.6 0.00 0.00 0.00 32
20260503200026 63 220 0.9 5.2 0.00 0.00 0.00 28
20260503195409 62 20 0.0 0.9 0.00 0.00 0.00 31
20260503194821 62 186 2.6 6.1 0.00 0.00 0.00 28
20260503194241 62 24 0.0 1.7 0.00 0.00 0.00 31
20260503193621 62 272 1.7 1.7 0.00 0.00 0.00 38
20260503193043 62 238 1.7 6.1 0.00 0.00 0.00 33
20260503192436 61 215 1.7 5.2 0.00 0.00 0.00 34
20260503191842 60 136 1.7 3.5 0.00 0.00 0.00 30
20260503191249 61 194 3.5 5.2 0.00 0.00 0.00 31
20260503190636 59 125 1.7 6.1 0.00 0.00 0.00 35
20260503190052 60 93 2.6 5.2 0.00 0.00 0.00 30
20260503185423 59 242 4.3 7.0 0.00 0.00 0.00 33
20260503184846 60 198 1.7 7.0 0.00 0.00 0.00 35
20260503184216 60 247 0.9 3.5 0.00 0.00 0.00 32
20260503183031 58 192 1.7 3.5 0.00 0.00 0.00 39
20260503182446 57 237 1.7 5.2 0.00 0.00 0.00 33
20260503181853 58 302 1.7 3.5 0.00 0.00 0.00 30
20260503181236 58 233 3.5 5.2 0.00 0.00 0.00 35
20260503180651 58 183 3.5 5.2 0.00 0.00 0.00 33
20260503180026 58 200 4.3 9.6 0.00 0.00 0.00 35
20260503175417 58 293 2.6 5.2 0.00 0.00 0.00 32
20260503174820 57 257 3.5 3.5 0.00 0.00 0.00 36
20260503174213 58 288 2.6 3.5 0.00 0.00 0.00 34
20260503173627 58 312 0.0 1.7 0.00 0.00 0.00 37
20260503173035 56 318 0.0 6.1 0.00 0.00 0.00 37
20260503172413 56 157 5.2 6.1 0.00 0.00 0.00 37
20260503171814 56 282 1.7 3.5 0.00 0.00 0.00 37
20260503171254 56 159 1.7 7.0 0.00 0.00 0.00 37